Wind_Speed
29 28 28 27 26 25 23 22 22 21 21 21 20 20 20 20 20 20 20 21 21 21 21 20 19 17 15 12 10 10 10 10 9 10 9 8 8 7 6 6 6 6 6 6 6 6 6 6 6 5 2 3 6 10 13 17 19 21 23 25 27 28 29 29 30 31 31 30 31 32 32 33 34 35 36 36 35 33 31 30 28 27 26 26 26 25 24 22
30 29 28 27 26 26 25 24 24 23 23 23 23 22 22 22 22 22 22 21 21 21 21 20 19 17 16 14 11 10 11 11 10 10 9 8 9 8 6 6 6 6 5 4 4 4 4 4 4 4 3 2 3 6 9 11 14 16 17 20 22 24 26 27 28 29 30 30 31 32 33 35 36 36 36 35 34 33 31 29 28 27 26 26 25 24 23 23
30 29 29 28 27 27 27 26 26 26 25 25 25 25 24 24 24 24 23 22 22 21 20 19 18 17 17 15 14 11 11 13 12 10 10 10 11 10 8 7 6 6 6 5 4 3 3 2 1 2 2 2 2 3 5 8 11 12 13 15 18 20 22 24 26 28 30 31 33 34 35 36 37 36 35 34 34 33 30 29 27 26 25 25 24 24 23 22
30 30 29 29 29 29 29 29 28 28 28 28 27 27 27 27 26 25 25 24 22 21 20 20 19 18 18 17 16 14 13 14 14 12 12 13 12 11 10 9 8 8 7 7 6 4 4 4 2 1 1 2 3 4 5 6 8 10 11 12 14 16 19 22 25 28 30 33 36 37 37 37 37 35 34 35 34 32 29 28 26 25 24 24 23 23 22 21
31 31 31 31 31 31 31 31 31 31 30 30 30 30 30 29 29 28 26 25 24 23 22 21 21 20 20 20 19 19 17 16 16 15 14 15 14 12 12 11 10 10 10 9 8 7 6 6 6 5 4 4 4 5 6 6 7 8 9 9 10 11 14 16 19 23 26 30 34 37 37 38 36 34 34 34 32 30 28 27 26 24 24 23 23 22 21 19
33 33 33 33 33 33 33 33 33 33 33 33 33 32 32 31 30 29 28 27 26 25 24 24 24 23 23 23 22 22 22 20 19 18 17 17 17 15 14 14 13 12 12 11 11 10 9 8 8 8 8 7 7 6 7 7 8 8 8 9 9 9 10 12 13 16 18 22 27 31 32 34 34 33 33 33 31 30 28 26 25 23 23 22 21 20 18 17
36 36 36 36 36 36 36 36 36 35 35 35 35 34 34 33 32 32 31 30 30 29 28 27 27 27 26 26 25 25 25 25 23 22 20 19 19 19 17 16 16 15 14 14 13 13 12 11 10 10 10 10 10 9 8 8 9 9 10 10 10 10 10 11 11 12 14 16 21 24 25 26 28 28 29 30 28 27 25 24 22 21 21 20 19 17 16 15
39 39 39 39 39 38 38 38 38 38 37 37 36 36 35 35 35 35 34 34 33 33 32 31 30 30 30 29 28 27 28 28 28 26 24 22 22 23 21 19 18 17 17 17 16 15 14 13 13 13 13 13 12 11 10 10 10 10 11 11 11 11 11 11 11 12 13 15 18 21 21 21 22 24 25 25 25 23 22 22 20 19 18 18 16 14 14 13
41 41 41 41 41 41 41 40 40 40 39 39 38 37 37 37 37 37 37 37 36 36 36 35 34 33 33 32 31 31 30 30 31 30 29 26 25 26 25 24 21 20 20 20 19 17 16 16 15 15 15 15 15 13 13 12 12 12 12 12 11 11 11 11 11 12 13 14 17 20 21 21 20 22 24 25 24 22 22 21 20 18 17 15 13 12 12 11
43 44 44 43 43 43 43 42 42 42 41 40 40 39 39 40 40 40 40 40 39 39 38 37 36 36 35 35 34 33 32 32 32 32 31 30 29 28 29 28 25 24 23 23 23 20 18 20 18 18 18 17 17 15 14 15 14 13 13 13 12 12 12 11 11 12 13 13 15 18 20 21 20 21 22 23 22 19 19 19 18 17 15 13 12 12 11 9
45 45 45 45 45 45 44 44 44 44 43 43 42 42 42 42 43 43 42 42 41 40 40 39 38 37 37 37 36 35 34 34 33 34 33 32 32 31 31 31 30 28 27 27 26 23 21 22 22 21 20 19 19 18 16 16 16 15 14 14 13 12 12 12 11 13 14 14 14 17 20 20 20 21 21 21 20 17 17 17 16 15 14 13 13 12 10 9
47 47 47 47 47 47 47 47 47 46 46 45 45 44 44 44 45 44 44 43 43 42 41 40 39 39 39 38 38 37 37 36 36 36 36 35 34 34 34 34 33 32 31 30 29 27 25 25 25 24 22 22 21 20 18 17 17 16 15 15 14 13 13 12 11 12 14 14 15 16 19 19 18 20 19 19 18 15 15 15 15 15 15 15 14 12 10 9
50 50 50 49 49 49 49 49 49 48 47 46 46 46 46 46 46 45 45 44 44 43 42 42 41 41 42 41 41 41 40 40 39 39 39 38 38 37 36 36 36 35 34 33 32 30 28 28 29 25 24 25 24 22 21 19 18 17 16 16 15 14 14 14 12 12 13 15 17 16 19 19 16 16 14 14 13 11 12 13 14 16 16 15 13 12 11 10
52 51 51 51 51 51 51 51 50 49 48 47 47 47 47 48 47 46 46 46 46 46 45 44 44 44 45 44 44 44 43 43 43 43 42 41 41 40 40 39 39 38 37 36 35 33 32 32 33 29 27 27 25 25 24 21 20 18 17 17 15 14 14 14 13 12 13 15 17 17 19 19 15 15 12 10 10 9 11 12 14 16 16 15 14 13 12 12
53 53 53 52 52 52 52 52 52 51 49 48 48 48 49 49 49 48 48 48 48 48 48 47 46 47 47 47 47 47 46 46 45 45 45 44 44 43 43 43 42 41 40 39 37 36 35 35 36 34 31 28 27 28 27 24 22 19 18 17 16 14 14 14 13 12 12 13 16 16 20 19 15 15 12 10 11 10 11 13 14 16 16 15 15 14 14 13
55 55 54 54 54 54 54 54 54 52 50 50 50 50 51 51 50 50 50 50 51 50 50 49 49 49 49 48 48 48 48 48 47 46 46 46 46 45 45 45 45 44 43 42 40 39 38 39 39 38 35 30 30 31 30 27 25 21 19 18 16 15 15 14 13 12 11 11 13 15 19 19 15 15 13 10 12 12 12 13 15 17 17 16 15 15 14 13
57 57 56 56 55 55 55 56 55 54 52 52 52 52 53 53 52 51 51 52 52 52 52 51 50 49 49 48 47 47 47 47 47 45 45 45 45 45 45 46 46 46 46 45 44 41 41 41 41 41 38 35 32 32 33 31 26 24 22 19 17 16 15 14 13 12 11 10 10 13 17 19 16 14 14 11 12 14 13 15 16 17 18 16 15 15 14 14
59 59 58 58 57 57 57 57 57 56 54 54 54 53 54 54 53 52 52 52 52 52 51 51 49 47 47 46 45 45 44 44 44 44 43 42 43 43 44 45 45 46 46 46 46 44 43 43 42 42 41 39 36 36 38 33 27 26 24 21 19 17 17 15 13 12 11 10 8 10 14 17 16 14 14 11 10 13 15 17 18 18 18 16 15 14 14 14
60 60 60 60 59 58 58 59 59 57 55 55 55 55 54 54 53 51 51 52 51 49 47 47 46 43 43 43 42 42 41 40 40 40 40 40 39 39 40 42 43 44 45 46 46 45 45 44 44 44 43 42 40 40 40 34 29 28 26 24 23 20 18 16 14 13 12 11 9 8 11 14 15 14 14 13 10 12 14 16 18 19 18 15 14 13 14 14
62 62 62 61 61 60 59 59 59 58 57 56 56 55 54 53 52 50 50 49 48 45 43 44 43 41 40 40 39 39 38 37 36 36 36 36 36 36 36 37 38 40 41 42 44 45 46 46 46 46 45 44 42 41 41 36 32 31 29 28 26 23 21 19 16 14 13 12 10 9 9 12 14 14 14 14 12 12 12 13 15 17 17 15 14 13 14 14
64 63 63 63 62 62 61 61 60 59 58 56 56 55 53 52 49 48 47 47 45 43 42 43 42 42 39 36 36 36 36 35 33 32 33 32 32 32 32 32 33 34 36 38 40 43 45 46 46 46 45 45 43 43 42 39 36 34 33 32 30 29 25 21 18 16 15 13 10 10 10 11 13 13 14 14 13 13 12 12 13 14 15 14 13 14 13 13
65 65 65 64 63 63 62 61 61 59 58 56 56 54 52 51 48 46 45 46 44 42 42 42 41 42 37 33 33 34 33 32 31 30 29 29 28 28 28 28 28 29 30 32 35 38 41 42 44 45 46 46 46 45 45 42 39 38 36 35 34 33 29 25 22 18 16 14 11 12 12 11 11 12 14 14 12 12 13 13 13 13 14 13 13 13 12 13
65 65 65 65 64 63 62 61 61 59 57 56 55 54 52 50 47 46 44 46 46 42 42 42 40 42 38 33 31 32 33 32 30 29 27 27 27 25 25 25 24 25 25 26 29 31 34 37 39 42 44 46 47 47 47 44 42 41 39 38 38 36 33 30 26 20 17 16 14 13 13 11 11 11 13 13 10 9 11 12 14 14 14 13 12 12 13 15
65 65 65 65 65 64 62 60 60 58 56 56 55 54 52 50 48 47 45 46 47 45 43 42 42 43 41 33 29 34 39 35 31 29 28 29 28 25 25 24 23 23 21 22 24 26 28 30 34 37 40 43 46 47 47 46 45 44 42 42 42 39 37 34 29 23 19 17 16 15 14 12 11 10 11 12 10 6 8 10 12 13 12 12 13 13 15 18
65 64 64 65 65 64 62 59 58 57 56 55 56 55 53 51 49 48 47 45 47 49 45 41 43 45 42 35 33 38 41 37 34 32 31 32 31 29 26 25 24 23 21 21 23 23 24 25 27 30 34 38 42 45 47 48 47 46 45 47 45 41 39 36 32 27 23 20 18 16 15 12 11 11 11 11 9 5 6 9 10 11 11 13 14 14 16 19
66 64 64 64 64 65 63 59 58 56 55 56 56 55 53 51 50 49 48 45 47 52 47 41 42 45 43 38 38 39 38 41 39 33 33 35 34 32 29 27 27 25 23 23 24 24 22 22 22 23 27 32 36 40 45 47 48 48 50 50 46 42 40 38 35 32 27 23 20 17 16 14 13 12 11 11 9 5 6 8 9 10 11 13 14 15 17 19
67 65 64 64 64 65 65 61 58 57 56 56 57 56 54 52 51 49 49 45 46 52 49 42 42 43 44 42 41 40 40 46 41 34 37 38 34 32 32 32 31 29 26 25 26 26 23 22 20 20 23 27 30 35 39 41 46 50 51 48 45 43 43 41 38 34 32 27 20 18 18 16 16 14 13 14 12 8 8 9 10 10 11 12 14 15 17 18
67 66 64 64 63 64 66 64 60 58 58 57 57 57 55 54 52 51 51 46 46 51 51 46 44 43 44 45 44 43 45 48 43 39 40 37 34 34 34 34 33 30 26 26 29 28 25 24 20 19 23 24 25 28 31 35 43 48 48 46 46 46 45 44 40 36 35 30 22 20 20 18 19 17 15 18 17 12 10 10 11 11 11 12 13 15 16 16
69 67 65 66 65 64 66 66 62 60 60 60 59 58 57 56 54 53 52 47 47 51 52 49 46 44 45 46 48 47 46 47 45 43 40 36 36 35 34 33 30 27 26 26 30 28 27 25 20 22 25 23 22 22 25 31 38 41 42 44 47 47 46 46 42 39 38 32 26 26 24 22 22 20 19 22 21 16 13 14 14 13 12 13 14 15 16 16
71 70 68 67 67 66 66 66 64 64 64 62 62 61 60 59 57 56 53 48 50 53 54 52 48 46 46 48 50 50 48 48 46 43 40 38 37 34 34 33 29 28 27 28 31 30 27 23 21 24 25 22 22 23 24 27 32 33 35 40 44 46 48 47 44 43 39 33 31 33 30 26 25 23 23 24 23 18 18 19 18 16 15 15 15 16 17 17
74 73 71 70 70 69 68 67 66 68 69 66 65 65 64 62 61 58 52 51 55 56 54 53 51 49 49 50 52 52 51 49 46 43 41 40 38 35 36 34 31 31 29 31 35 31 24 22 23 25 24 22 24 24 25 26 27 28 30 34 37 42 46 45 45 44 39 36 38 39 35 29 26 27 27 26 24 21 22 23 21 20 19 18 18 19 19 19
76 76 75 73 72 70 71 70 68 70 72 71 68 68 68 66 64 59 54 57 60 57 55 54 53 53 54 53 54 55 54 52 48 46 44 43 41 38 38 37 34 32 30 34 37 30 23 24 26 25 24 24 25 26 26 26 26 25 25 28 31 35 40 42 44 45 42 42 43 42 37 29 27 30 29 28 27 25 25 25 24 23 22 21 21 21 21 21
79 79 78 77 74 72 73 74 73 71 73 75 72 71 72 70 65 62 61 63 64 60 58 57 56 58 58 56 56 57 57 55 52 49 47 46 44 41 41 40 37 34 34 38 38 31 27 28 27 28 29 28 26 26 26 25 25 23 22 24 26 29 33 37 43 46 46 47 46 44 38 29 29 33 32 32 31 28 27 27 26 25 24 23 23 23 24 24
82 82 82 81 78 75 75 77 77 75 75 77 76 74 74 71 67 67 67 69 68 65 63 62 60 61 61 60 61 60 59 58 56 53 51 49 46 44 43 43 40 39 40 41 39 35 32 30 30 33 33 29 25 25 25 23 22 22 22 21 21 25 29 33 39 44 47 48 47 45 39 32 33 38 37 34 33 31 29 28 27 27 27 26 25 26 27 27
84 85 85 84 81 78 78 79 80 79 78 79 79 77 75 72 71 72 72 72 72 70 68 67 66 65 64 64 65 63 60 60 59 56 54 51 48 47 47 47 46 45 44 42 42 40 35 33 36 36 33 29 26 28 26 21 21 23 21 17 19 26 27 27 31 36 42 46 45 44 42 39 40 41 39 36 34 33 32 31 29 29 30 29 29 29 30 30
85 87 88 87 84 82 81 81 82 83 82 82 81 79 75 74 76 77 76 76 75 74 73 73 72 70 69 68 67 65 62 61 61 59 56 54 52 52 52 51 51 49 46 45 44 42 37 37 40 36 32 31 30 31 26 20 21 21 16 16 24 27 22 20 24 29 34 40 45 48 47 46 44 42 41 39 38 37 36 34 33 33 32 31 32 33 34 33
85 88 89 89 87 85 84 84 84 86 86 85 83 80 78 79 79 79 79 79 78 77 78 78 77 75 73 71 69 68 65 64 63 60 58 58 57 56 55 55 54 51 50 48 46 43 40 41 42 37 34 35 35 32 26 21 20 18 16 21 26 22 19 18 20 23 28 33 41 47 49 49 46 44 45 44 42 41 40 39 39 37 35 34 34 36 37 36
85 88 90 90 89 88 87 87 87 88 88 88 86 83 83 82 82 82 83 82 81 81 81 81 81 79 77 75 73 72 69 68 66 62 61 62 61 60 58 57 55 53 51 50 47 45 44 43 44 41 38 39 38 33 27 23 22 21 23 25 22 18 19 19 18 21 24 27 33 40 46 49 48 49 50 48 46 45 43 42 42 41 39 38 37 38 38 39
86 89 91 90 89 89 90 90 91 91 90 90 88 87 87 86 86 86 86 85 83 83 84 84 84 83 80 79 77 76 73 72 70 67 65 66 65 63 60 58 57 54 53 52 48 48 48 46 46 46 43 42 39 32 27 27 28 28 28 25 22 20 20 20 19 20 20 21 25 31 40 48 52 54 54 51 50 48 46 45 44 43 42 42 41 39 39 39
87 90 92 90 89 91 92 92 93 94 93 92 91 91 90 89 89 89 89 88 87 86 86 86 86 86 84 82 81 80 78 76 74 72 70 70 68 65 62 61 60 57 56 55 53 54 54 50 48 50 47 43 38 33 31 32 33 32 29 27 26 23 22 21 18 18 19 19 20 24 31 42 51 55 55 54 52 51 48 47 47 46 44 43 43 42 41 40
88 91 93 90 90 93 95 94 95 96 96 95 94 94 93 92 92 92 93 92 90 89 88 88 88 87 86 85 84 82 81 79 79 77 75 74 72 69 66 64 63 62 61 61 60 59 57 51 49 51 49 43 41 39 38 39 39 36 32 30 29 25 21 18 14 15 17 16 18 20 24 34 45 51 54 55 53 52 51 50 50 49 46 45 45 45 43 42
88 91 92 90 90 94 96 96 95 96 96 97 97 97 96 95 95 95 96 96 94 92 91 90 89 88 88 88 87 85 84 83 83 82 80 78 76 73 69 67 66 65 66 66 64 62 59 55 52 52 50 48 47 46 44 42 42 39 34 32 31 28 23 18 15 17 17 15 18 19 21 31 39 43 48 53 54 54 54 54 53 52 49 48 47 46 46 45
90 92 92 90 91 93 96 97 96 95 96 97 97 98 99 99 98 97 98 97 96 96 95 93 91 90 90 90 89 88 87 86 86 85 84 82 80 78 75 72 69 69 69 68 67 65 63 60 57 55 54 54 52 50 47 44 44 41 37 36 35 32 29 25 24 24 19 14 17 18 20 30 35 35 39 45 50 54 56 56 56 55 54 52 51 49 48 48
93 94 94 92 92 93 95 96 96 95 96 96 97 98 100 101 101 100 100 99 99 99 98 96 95 93 92 92 91 91 90 90 89 87 86 85 83 82 80 77 75 74 73 71 70 69 66 64 62 59 58 57 55 53 49 46 46 44 41 41 38 36 35 31 30 29 22 17 18 18 20 30 36 35 34 36 42 49 55 58 58 57 57 56 55 53 51 51
95 96 96 95 93 94 97 97 96 95 96 96 97 99 100 102 103 103 102 102 102 101 100 99 98 97 96 95 95 94 93 93 92 90 88 87 86 85 83 82 80 79 78 75 73 71 68 67 67 64 61 59 57 55 52 52 52 48 45 44 41 40 39 36 34 31 25 23 22 19 21 30 37 38 34 33 36 40 47 55 58 60 60 58 57 56 55 54
97 97 99 98 96 96 98 99 97 97 97 97 98 99 100 102 103 103 103 104 104 104 102 101 101 101 100 99 98 97 96 96 95 93 91 90 89 87 86 85 84 82 82 80 77 75 72 70 70 69 65 61 59 58 58 59 57 51 49 49 47 45 44 42 38 30 26 26 24 22 26 30 34 39 39 36 35 35 38 45 52 58 61 61 60 59 58 57
101 100 101 101 99 98 100 101 100 99 99 98 99 100 101 102 102 102 103 104 105 104 104 104 104 103 102 100 100 100 99 98 98 96 95 93 91 90 89 89 87 86 85 84 82 79 76 74 74 73 68 64 62 61 63 63 60 56 55 54 51 50 50 46 39 32 32 31 26 27 31 31 31 38 42 40 35 33 33 36 41 49 57 61 62 61 61 60
105 105 104 105 104 102 102 102 102 102 102 100 100 101 101 102 102 102 102 103 103 104 105 107 106 105 103 101 101 102 102 101 101 100 99 97 95 94 92 92 91 89 88 87 86 83 80 78 78 76 72 68 65 65 67 68 65 62 61 59 57 56 54 49 42 39 39 35 31 33 36 32 30 34 40 42 38 34 33 32 34 39 46 55 61 63 63 63
103 105 106 106 108 108 107 106 105 105 105 104 103 103 103 103 102 102 103 103 104 105 106 107 107 106 105 104 102 103 103 103 104 103 102 101 99 97 96 95 94 92 92 91 89 87 84 82 81 79 75 72 70 69 70 71 69 67 65 63 61 60 57 52 48 46 44 40 39 40 38 34 33 33 36 40 40 38 36 33 33 35 38 44 52 59 63 65
94 97 99 102 105 108 109 109 110 110 109 108 106 106 105 105 103 103 104 105 105 105 105 106 107 106 106 106 104 104 104 104 105 105 104 104 103 101 100 99 98 96 96 95 93 90 87 85 85 83 79 76 75 74 74 75 74 71 68 65 63 61 58 55 52 50 47 45 45 44 40 38 37 35 35 39 41 42 41 37 35 36 36 38 43 50 57 62
82 85 88 92 96 100 104 108 110 112 113 113 111 110 109 107 105 104 105 106 106 106 106 106 107 107 107 107 106 106 105 105 104 104 104 105 105 105 104 103 102 100 99 98 96 93 90 89 88 86 83 80 80 80 79 78 77 75 70 66 63 61 59 56 56 55 52 50 49 46 41 40 40 39 39 41 42 44 44 42 38 37 36 37 39 43 47 53
71 73 75 79 84 89 94 99 103 107 112 114 115 114 113 112 109 108 107 107 107 107 107 107 107 107 107 107 107 107 105 104 104 104 105 106 106 107 107 106 105 103 102 101 99 96 93 92 91 90 86 83 84 85 83 81 82 77 69 64 63 63 62 60 60 59 56 55 53 48 43 43 44 44 43 44 44 44 44 41 38 37 37 37 38 40 42 45
Wind_Direction
272 272 273 273 273 272 272 272 273 274 275 276 278 279 281 284 286 289 291 293 295 297 298 300 300 301 303 306 313 317 313 312 318 321 327 332 335 342 344 351 2 13 25 33 38 46 55 64 73 82 111 196 219 225 232 235 238 243 247 250 252 253 254 255 257 259 259 260 263 263 263 264 265 266 268 270 272 272 274 276 278 279 279 279 279 275 272 269
271 271 271 271 271 271 271 271 271 271 272 274 275 277 278 280 282 284 286 287 289 290 292 293 295 295 297 299 301 305 302 298 305 312 312 312 316 321 325 327 334 340 350 4 11 25 39 55 72 82 95 131 198 222 232 237 240 244 250 254 256 257 257 257 257 258 258 258 260 262 263 264 265 267 269 271 271 272 274 276 277 278 278 277 274 271 269 269
269 269 269 269 269 270 270 269 270 270 272 273 274 276 277 279 280 281 283 283 284 284 285 286 288 290 291 293 294 295 293 290 295 301 298 295 302 308 309 307 309 310 313 319 326 335 345 6 56 96 111 131 170 205 224 234 240 244 251 258 261 262 261 260 261 260 260 260 259 260 262 264 264 265 266 267 268 270 272 274 275 276 275 273 270 268 268 270
266 266 267 267 268 268 268 269 270 270 272 273 274 276 278 279 280 280 280 280 280 280 280 280 281 283 285 287 288 287 285 284 287 289 287 287 292 296 294 292 290 288 288 290 293 294 298 298 292 259 200 189 197 206 212 223 231 235 241 250 258 262 263 264 264 264 263 263 262 261 261 262 263 264 264 265 266 268 269 271 273 274 273 270 266 266 267 269
265 265 265 265 266 267 268 269 270 271 272 273 274 276 277 278 279 279 278 277 276 276 275 276 277 278 280 282 284 284 282 279 280 282 280 279 282 284 283 281 279 279 277 276 277 276 277 279 281 275 258 241 233 231 226 229 231 232 237 243 252 261 266 268 268 268 267 266 265 264 262 262 262 263 263 264 264 266 267 269 271 272 271 268 265 263 265 267
264 265 265 265 266 266 267 268 269 271 272 273 274 275 276 277 277 276 276 275 274 274 273 273 274 275 276 277 279 281 280 278 276 275 275 275 277 276 274 274 275 274 273 271 268 267 266 267 271 271 268 260 253 250 246 246 245 246 250 250 255 264 269 273 277 279 278 273 269 267 265 263 262 262 263 264 264 265 266 267 269 270 268 264 261 260 261 265
265 265 266 266 266 267 268 269 270 271 272 272 273 274 275 275 275 275 274 275 274 274 273 273 273 273 274 274 274 275 276 277 275 273 272 272 273 272 269 269 270 270 270 269 265 262 260 259 263 266 267 265 262 260 261 262 261 262 262 259 259 265 268 274 285 293 294 289 280 276 272 267 263 261 262 264 264 265 266 266 265 265 262 257 255 255 259 265
266 267 267 268 268 269 269 270 270 270 271 272 272 273 274 274 274 275 275 275 275 276 275 274 274 274 273 273 272 272 271 274 274 272 270 267 267 270 268 265 265 266 265 265 264 260 257 256 257 261 265 265 264 264 265 267 268 270 270 270 270 274 279 284 295 307 313 310 300 293 289 282 268 259 258 260 260 261 263 264 264 260 254 250 249 253 260 265
268 268 269 269 269 270 270 270 270 270 270 271 272 273 273 274 275 275 275 276 276 277 277 277 276 276 275 274 273 272 270 271 272 272 270 267 264 265 266 265 262 262 262 261 261 259 259 259 254 256 260 263 263 263 265 266 267 271 274 277 279 284 290 300 310 320 328 326 312 302 300 295 279 262 257 257 258 259 259 258 258 252 244 242 245 250 256 258
268 268 269 269 269 269 270 270 270 270 271 271 272 272 273 274 274 274 275 275 276 276 277 277 277 277 276 275 274 273 271 270 271 272 270 268 265 262 263 264 261 259 259 259 259 258 259 260 257 254 255 258 261 260 262 266 268 272 276 279 284 290 295 305 318 326 335 336 321 307 304 304 293 276 264 258 257 256 256 252 247 242 236 236 240 242 244 243
268 269 269 270 270 270 270 271 271 271 272 272 272 273 273 274 274 274 275 275 276 276 276 277 277 276 276 275 274 273 272 271 270 271 270 268 266 262 260 261 260 258 256 257 259 258 256 256 258 257 256 256 258 258 258 264 268 272 276 279 283 290 295 303 316 327 335 339 332 318 312 311 299 285 273 262 257 253 252 246 236 232 229 229 229 229 227 225
269 269 270 270 271 271 271 271 272 272 272 273 274 274 274 274 274 274 275 275 275 275 275 275 275 275 274 273 273 272 271 271 269 268 268 268 266 263 260 259 259 257 255 255 257 257 254 255 254 253 257 259 256 256 256 259 266 269 273 276 280 287 293 301 313 326 334 341 343 328 317 318 301 289 282 270 263 253 245 236 227 225 223 220 216 217 216 217
269 270 270 271 271 271 272 272 272 272 273 274 274 274 274 273 273 273 274 274 274 273 273 273 272 272 271 271 271 271 270 269 268 266 266 266 265 263 260 259 258 256 255 253 254 254 253 254 253 250 255 258 257 258 256 256 260 263 268 272 277 285 292 299 309 322 331 342 347 332 319 323 309 296 292 275 265 249 237 230 224 225 221 215 211 213 214 216
270 270 270 271 271 271 272 272 272 272 273 273 273 273 272 272 272 272 272 272 271 271 271 271 271 271 270 271 271 270 269 268 267 266 265 263 262 261 259 258 256 255 255 253 251 251 250 251 253 251 249 251 256 260 258 256 256 258 264 268 273 281 287 296 306 316 330 343 348 333 319 324 315 300 297 277 263 240 230 229 227 229 224 216 213 216 218 219
270 270 271 271 271 271 271 271 271 271 272 272 271 271 270 270 271 271 271 271 270 271 271 271 271 271 271 271 271 270 269 268 266 266 265 262 260 258 256 255 254 253 253 252 250 248 248 249 251 250 247 247 253 257 256 256 256 255 258 262 267 273 280 289 299 310 325 340 348 334 318 324 319 302 296 272 260 240 224 226 230 233 228 222 221 223 224 223
270 270 270 270 270 270 271 270 270 271 271 271 270 270 270 271 271 272 272 272 272 272 272 272 271 271 271 270 270 269 268 267 265 264 262 261 259 257 254 253 251 250 250 249 248 246 245 246 247 249 248 246 248 252 254 253 255 257 257 259 263 268 273 282 292 302 315 327 344 336 318 322 322 306 296 267 252 244 229 225 230 234 233 230 228 230 230 228
269 269 269 269 269 270 270 270 270 270 271 271 271 271 271 271 272 272 272 272 273 273 272 272 272 271 269 269 268 266 266 265 264 262 259 258 258 257 254 252 250 248 248 247 247 245 243 244 245 248 248 246 245 249 251 249 250 257 260 260 262 264 266 273 282 292 302 311 333 337 320 318 322 310 299 278 254 248 238 232 233 236 237 234 231 231 230 230
269 269 269 269 269 269 270 270 270 270 270 271 270 270 271 271 271 272 272 272 272 272 272 271 270 268 265 265 264 262 262 261 261 259 257 255 255 254 253 252 250 248 247 246 246 245 243 243 243 245 246 245 243 244 247 247 248 255 260 263 261 261 262 265 271 279 289 295 311 331 320 313 318 312 302 297 274 258 248 239 236 237 236 231 228 228 227 230
269 269 269 269 269 269 269 269 270 270 270 270 270 269 270 270 270 270 270 270 270 270 268 266 265 263 260 260 259 258 258 257 256 256 255 253 252 251 250 250 250 248 247 246 245 244 243 242 242 242 243 243 242 242 245 247 247 251 256 260 259 257 257 256 258 264 273 282 291 313 315 307 311 312 306 306 293 271 256 244 237 235 231 225 226 228 231 233
270 270 269 269 269 268 268 268 269 269 269 269 269 269 268 268 269 269 267 267 266 264 261 260 260 257 256 257 255 255 254 252 253 252 252 251 250 248 247 248 248 248 247 246 245 244 243 242 241 242 243 244 244 244 245 245 245 247 250 253 255 254 252 250 250 250 256 267 277 289 301 300 302 309 309 306 296 281 263 245 234 229 224 219 226 235 237 234
271 270 269 269 269 268 268 268 268 268 268 268 267 267 267 266 266 265 264 262 260 258 256 256 256 255 254 253 252 253 252 250 249 250 249 248 248 247 246 245 246 246 246 245 244 244 243 242 243 243 243 244 244 244 244 243 241 243 245 248 252 251 249 246 245 241 244 250 260 270 278 289 297 307 313 308 291 275 260 245 234 224 220 221 231 239 235 223
270 270 269 269 268 268 268 268 267 267 267 266 265 264 264 263 262 261 259 258 255 254 254 254 254 255 250 247 249 251 250 248 246 247 247 246 245 246 247 245 245 244 245 245 244 244 244 244 244 243 243 243 242 242 242 241 239 240 241 244 246 247 247 246 241 235 237 240 246 257 265 277 293 307 315 312 290 266 254 246 238 228 225 227 230 229 219 201
269 269 269 269 268 267 267 267 266 266 265 264 263 262 261 260 259 256 255 255 254 251 250 252 253 254 248 241 246 250 247 244 244 243 244 247 245 244 246 246 244 245 244 244 244 245 246 245 245 243 242 242 242 242 242 241 240 238 238 240 242 243 244 244 239 231 230 234 235 244 255 266 283 301 311 312 300 269 250 244 240 232 226 219 211 207 196 184
268 268 268 268 267 266 265 265 265 264 264 262 261 260 259 257 256 254 252 252 254 250 247 248 251 252 249 240 239 247 246 242 241 241 242 245 245 243 244 245 244 244 244 245 245 245 246 246 245 244 243 242 242 242 242 241 240 238 237 238 239 240 241 242 240 234 228 228 230 237 246 254 269 286 299 305 305 277 245 237 232 224 211 195 189 189 184 176
266 266 266 266 265 264 263 262 262 262 261 260 259 258 257 256 254 252 250 249 253 252 246 245 248 251 250 241 233 242 249 246 239 239 242 244 244 243 243 244 245 245 245 247 248 245 244 245 246 246 245 244 242 242 241 240 239 238 237 236 236 236 239 240 241 239 231 225 225 229 238 244 254 266 280 292 295 275 233 222 214 202 189 180 180 181 178 174
265 264 264 263 263 263 262 259 259 259 258 258 258 257 256 254 252 250 249 246 249 253 248 241 245 250 250 243 234 238 249 250 242 237 242 242 241 242 243 244 244 245 245 247 250 248 244 245 247 248 248 246 243 241 241 241 240 239 237 236 235 235 238 239 239 240 238 229 221 222 230 237 244 250 263 273 272 252 213 201 191 180 176 173 174 175 176 175
264 263 262 261 261 262 261 259 256 256 255 255 256 256 255 253 250 248 247 244 245 252 251 241 238 245 249 246 239 236 242 250 247 240 242 242 241 243 244 244 243 244 245 246 250 249 246 246 246 246 248 247 245 244 243 243 242 240 238 238 237 235 236 237 236 238 241 234 222 222 224 229 236 238 247 253 247 230 203 189 183 178 178 175 174 175 177 180
262 261 260 259 259 260 261 259 256 255 254 253 252 253 253 251 249 247 245 242 242 250 253 246 238 239 246 248 245 239 239 246 248 245 245 245 243 243 243 244 243 243 244 246 249 249 246 245 243 247 250 248 248 248 246 243 242 241 240 239 238 235 235 236 234 235 240 237 230 229 223 223 231 230 236 242 234 221 207 198 194 191 191 187 182 182 183 186
261 259 258 258 257 257 259 260 258 255 254 252 251 250 250 250 248 246 245 242 241 248 253 252 245 239 241 246 248 244 241 244 247 247 247 246 243 242 243 244 244 242 241 245 250 248 245 243 240 245 250 249 251 250 246 246 245 245 243 241 239 236 234 234 232 232 234 235 236 235 225 220 225 225 230 237 231 221 215 210 205 202 203 199 192 190 189 192
260 258 257 256 256 256 256 258 258 256 254 252 252 250 248 248 247 246 245 243 243 246 250 252 251 245 241 243 247 248 245 244 245 246 246 245 243 243 246 246 243 241 240 246 251 246 243 243 241 246 249 250 251 250 248 250 250 247 245 243 241 238 235 233 232 230 230 231 234 234 227 220 222 223 226 233 231 225 223 219 211 207 209 206 200 195 194 195
260 258 256 255 255 255 255 255 256 256 255 251 251 251 249 248 247 245 244 244 244 245 247 250 252 250 245 242 243 246 247 246 244 243 243 243 242 242 245 245 242 241 240 245 250 245 243 247 248 249 249 247 249 250 250 252 252 248 246 245 243 240 238 235 233 231 227 228 231 232 229 220 221 226 224 227 230 227 227 225 217 213 212 209 205 200 197 197
260 258 257 254 253 253 254 254 252 253 255 253 250 250 250 248 247 246 245 245 245 244 245 247 248 249 248 245 243 244 246 246 243 240 239 240 240 239 243 243 241 241 242 247 251 247 245 250 251 252 250 247 248 248 249 254 254 250 249 250 247 244 241 236 234 231 226 226 230 233 230 222 225 231 226 224 226 225 227 229 225 221 218 214 209 204 202 201
259 258 257 255 253 252 253 253 251 250 252 253 251 249 249 248 248 247 246 246 246 245 244 244 245 246 247 247 245 244 244 245 244 240 238 238 239 238 240 241 239 239 242 248 252 248 242 244 248 250 249 245 245 247 250 254 258 257 253 250 249 249 244 237 234 231 227 225 227 230 228 221 227 234 231 226 224 223 227 230 230 227 224 221 216 210 207 207
259 258 257 255 253 251 251 252 252 250 249 251 251 249 248 248 248 247 247 247 247 245 244 243 242 244 245 246 246 244 243 244 244 242 239 238 239 240 240 240 238 237 240 244 248 246 239 240 244 246 247 245 247 252 252 253 258 259 255 253 254 252 245 238 236 232 230 228 227 228 226 221 226 232 232 230 227 225 226 228 231 231 229 225 222 217 214 212
259 258 257 256 254 252 250 250 251 251 249 249 250 249 248 248 247 246 246 246 246 245 244 243 242 241 243 244 245 244 243 243 244 243 241 240 239 240 241 241 239 237 238 241 244 244 239 239 243 243 246 249 250 253 251 250 252 255 261 263 256 251 245 242 242 237 234 231 229 229 226 222 224 229 232 231 230 228 226 226 228 230 231 228 225 223 221 218
259 258 257 256 254 252 251 250 250 250 250 249 248 248 248 248 247 246 245 245 246 246 245 244 242 241 241 243 245 246 245 244 244 243 242 242 240 240 241 242 242 240 239 240 242 242 239 241 245 244 247 250 249 252 253 251 252 256 264 258 252 256 254 246 244 240 236 233 229 226 224 223 222 226 230 231 231 230 227 225 225 227 229 229 228 227 226 225
260 259 258 256 255 253 251 250 250 250 250 249 248 248 247 247 246 246 245 244 245 245 245 245 244 242 241 242 244 246 246 246 245 243 243 242 240 239 240 242 243 242 241 240 240 241 239 243 247 246 247 249 249 253 257 255 255 259 258 250 253 265 267 253 247 244 237 234 231 226 224 225 224 224 228 229 230 231 228 224 224 225 226 227 229 230 229 228
259 259 258 257 256 254 252 251 250 249 249 249 248 248 247 246 246 246 245 243 243 243 244 245 245 243 242 241 242 244 245 246 246 244 243 242 241 239 239 241 244 243 243 242 241 241 241 244 248 247 246 249 251 254 259 259 259 258 254 254 259 266 267 262 257 251 241 236 237 231 225 226 226 225 226 226 228 231 231 228 225 224 225 226 227 230 232 232
259 258 258 258 257 255 253 251 250 249 248 248 248 247 246 246 246 246 245 244 243 242 243 244 245 245 243 242 241 242 243 245 246 244 243 243 242 241 240 242 244 244 245 245 244 245 244 243 247 248 246 248 251 253 257 259 257 257 256 259 261 259 260 262 262 262 253 241 240 234 228 228 227 226 226 225 225 229 231 232 230 226 225 227 228 229 231 234
258 258 257 257 257 256 254 251 250 249 248 247 247 246 246 245 245 245 245 244 243 242 242 243 244 245 244 243 242 241 241 243 245 245 244 244 243 242 241 242 243 244 245 245 244 244 244 242 245 249 248 248 251 253 255 254 254 254 255 256 258 256 260 263 264 269 266 257 250 238 232 232 229 227 228 227 225 227 229 232 234 232 227 226 229 230 230 233
258 258 257 256 255 255 255 253 250 249 248 247 246 246 245 245 244 244 245 245 243 243 242 242 243 245 245 245 243 241 241 241 243 244 244 244 244 242 242 242 243 243 244 244 243 243 244 243 244 249 251 251 252 251 249 249 250 251 253 255 257 260 265 268 266 264 263 263 259 247 240 239 233 229 230 230 227 227 228 230 234 236 233 229 228 231 232 233
258 257 257 256 255 254 254 253 251 250 248 247 246 246 245 245 244 243 244 244 244 243 242 242 242 243 245 245 245 243 241 240 241 243 244 244 245 244 243 242 243 244 244 245 245 245 246 245 244 247 251 250 250 249 248 248 251 253 255 258 261 266 272 274 270 263 255 252 258 257 253 250 241 233 232 231 229 228 228 228 231 233 235 234 231 230 231 233
258 258 257 256 255 254 253 253 252 251 249 248 247 246 246 245 244 244 244 244 243 243 243 242 242 242 243 244 245 245 243 241 241 241 242 243 244 245 244 243 242 243 244 245 246 246 246 245 244 245 247 248 249 250 250 251 253 256 259 261 263 267 268 267 264 260 254 253 261 262 262 261 254 244 237 234 232 230 229 229 230 231 233 235 235 233 231 232
260 259 258 257 255 255 254 253 252 252 250 249 247 246 245 245 244 244 244 243 243 243 242 242 241 241 242 243 244 245 245 244 242 241 241 242 243 244 244 244 243 243 243 243 245 245 245 246 245 244 245 247 249 250 251 253 255 256 257 258 260 261 261 260 260 259 256 256 260 261 262 265 264 258 248 241 236 233 231 230 230 231 232 233 235 236 235 234
261 260 259 258 256 255 255 254 253 252 251 249 248 247 245 245 244 244 244 243 243 242 242 241 241 240 240 240 242 243 244 245 244 243 242 242 242 243 244 244 244 243 244 243 243 245 245 246 246 245 245 246 248 249 250 251 251 250 250 252 253 254 254 254 254 255 254 253 256 257 254 257 264 266 260 252 246 239 235 233 231 231 232 233 234 236 237 238
262 260 260 259 257 255 255 254 253 252 251 250 249 247 246 245 244 244 243 243 243 243 242 242 241 240 239 239 240 241 242 243 244 244 243 243 243 243 244 245 244 244 245 244 244 244 244 245 247 246 245 245 246 248 249 249 249 248 248 248 248 248 249 249 250 254 255 252 253 255 253 254 264 271 270 262 254 249 243 239 235 233 233 234 234 235 237 239
262 260 259 259 258 256 255 254 254 253 252 250 249 248 247 246 245 244 244 243 243 243 243 242 241 241 239 238 238 239 240 241 243 243 243 243 243 243 244 244 245 245 245 245 245 244 244 244 246 246 246 245 246 247 249 250 250 250 249 250 250 250 250 250 253 254 253 253 255 254 254 255 261 269 274 272 264 259 254 247 242 238 236 235 235 235 236 237
262 260 258 258 257 256 254 254 253 252 252 251 250 248 247 246 246 245 244 244 243 243 243 242 242 241 241 239 238 238 239 239 241 242 242 242 242 243 243 244 244 244 245 245 245 245 244 244 246 246 246 246 246 246 248 249 249 249 249 249 250 251 252 253 254 253 253 255 254 250 252 257 259 263 272 276 275 271 264 256 249 244 240 238 237 236 236 237
262 260 258 256 255 254 253 253 252 252 251 250 249 249 248 247 246 245 245 244 243 243 242 242 242 241 241 240 239 238 238 238 239 240 241 241 241 242 242 242 243 243 244 244 244 244 244 244 245 246 246 247 246 246 247 249 248 248 248 249 250 251 253 254 255 254 254 254 251 249 254 261 261 260 264 271 276 275 270 264 256 249 244 242 240 238 237 237
263 260 258 256 254 253 252 251 250 250 250 249 249 248 248 247 246 246 245 244 244 243 242 242 242 241 241 240 239 239 238 238 238 239 240 240 241 241 241 241 242 242 243 243 243 243 244 244 245 245 246 246 247 246 246 248 248 248 248 249 250 252 253 255 256 255 255 255 254 254 257 261 260 258 258 261 265 268 269 267 262 255 249 244 243 242 240 239
264 261 258 256 254 252 251 250 248 248 248 248 248 247 247 247 246 246 245 244 244 243 243 242 241 241 241 240 240 239 238 238 238 239 239 240 240 241 241 241 241 241 242 243 243 243 243 244 244 245 245 246 247 247 246 247 249 249 248 249 252 254 255 256 257 256 255 255 255 255 257 257 254 253 252 252 255 259 262 265 266 264 258 251 247 245 244 243
265 262 259 256 254 251 250 249 248 246 246 245 246 246 246 246 246 245 245 244 244 244 243 242 241 241 240 240 240 239 238 238 238 239 239 239 240 241 241 241 241 241 241 242 243 243 243 243 244 244 244 244 246 247 247 248 249 249 250 252 253 254 255 255 255 255 255 255 254 255 255 251 248 250 252 251 250 252 256 262 266 266 264 260 255 251 248 247
Height
10986 10986 10986 10986 10986 10986 10986 10987 10987 10987 10987 10987 10987 10988 10987 10987 10987 10987 10986 10986 10985 10984 10984 10983 10984 10984 10984 10985 10985 10984 10984 10983 10982 10981 10981 10980 10980 10980 10980 10979 10979 10978 10978 10977 10976 10975 10974 10974 10973 10973 10974 10974 10975 10976 10977 10978 10979 10980 10980 10980 10981 10982 10983 10983 10982 10981 10981 10981 10980 10979 10980 10979 10979 10980 10980 10980 10980 10979 10979 10979 10979 10979 10979 10979 10979 10979 10978 10978
10984 10983 10983 10983 10983 10983 10984 10984 10984 10985 10985 10985 10985 10985 10986 10986 10985 10985 10985 10984 10984 10983 10982 10982 10982 10982 10982 10983 10984 10984 10983 10982 10982 10981 10980 10980 10979 10979 10979 10979 10979 10978 10978 10977 10977 10976 10975 10975 10974 10974 10974 10974 10975 10975 10976 10977 10978 10979 10979 10979 10980 10980 10981 10981 10980 10979 10979 10979 10978 10977 10978 10977 10977 10978 10978 10977 10976 10976 10977 10977 10977 10977 10978 10978 10977 10977 10977 10976
10981 10981 10981 10981 10981 10981 10981 10981 10982 10982 10982 10982 10983 10983 10983 10983 10983 10983 10983 10983 10982 10982 10981 10980 10980 10980 10980 10980 10981 10982 10982 10981 10981 10981 10980 10979 10979 10979 10979 10979 10978 10978 10978 10977 10977 10977 10976 10975 10975 10975 10974 10974 10975 10975 10976 10977 10977 10978 10978 10978 10978 10979 10979 10979 10978 10977 10977 10977 10976 10976 10976 10974 10974 10976 10976 10974 10974 10974 10975 10975 10975 10975 10976 10976 10976 10975 10975 10975
10978 10978 10978 10978 10978 10978 10978 10978 10979 10979 10979 10979 10980 10980 10980 10980 10980 10980 10980 10980 10980 10980 10979 10979 10979 10978 10978 10978 10979 10980 10980 10980 10979 10980 10979 10979 10978 10978 10978 10978 10978 10977 10977 10977 10977 10977 10976 10976 10975 10975 10975 10975 10975 10975 10976 10976 10977 10977 10978 10978 10978 10977 10977 10977 10976 10975 10974 10974 10973 10974 10974 10972 10972 10973 10972 10972 10972 10972 10973 10973 10973 10974 10973 10973 10973 10973 10973 10973
10975 10975 10975 10975 10975 10975 10975 10975 10976 10976 10976 10976 10976 10976 10977 10977 10977 10977 10977 10977 10977 10978 10977 10977 10977 10977 10976 10976 10976 10977 10978 10978 10978 10978 10978 10977 10977 10977 10977 10976 10976 10976 10976 10976 10976 10976 10976 10975 10975 10975 10975 10975 10975 10975 10975 10976 10976 10976 10977 10977 10976 10976 10976 10975 10974 10972 10972 10971 10968 10968 10970 10970 10970 10970 10968 10969 10970 10970 10970 10970 10971 10971 10971 10971 10971 10972 10972 10972
10972 10972 10972 10972 10972 10972 10972 10972 10972 10973 10973 10973 10973 10973 10973 10973 10973 10973 10974 10974 10974 10975 10975 10975 10975 10975 10975 10974 10974 10974 10974 10975 10976 10976 10976 10976 10975 10975 10975 10975 10975 10975 10975 10975 10975 10975 10975 10975 10974 10974 10974 10974 10974 10975 10975 10975 10975 10975 10975 10975 10975 10975 10975 10973 10972 10970 10969 10968 10965 10964 10965 10966 10967 10967 10965 10965 10967 10967 10968 10968 10969 10969 10969 10969 10970 10970 10970 10970
10969 10969 10969 10969 10969 10969 10969 10969 10969 10969 10969 10969 10970 10970 10970 10970 10970 10970 10970 10970 10970 10971 10972 10972 10972 10972 10972 10972 10972 10972 10971 10971 10972 10973 10974 10974 10973 10973 10973 10973 10973 10973 10973 10973 10973 10973 10973 10973 10973 10973 10973 10973 10973 10973 10973 10973 10973 10974 10974 10974 10974 10974 10974 10972 10970 10968 10967 10965 10962 10961 10962 10963 10964 10964 10963 10962 10963 10964 10965 10965 10966 10967 10967 10967 10968 10968 10969 10969
10965 10965 10965 10965 10965 10965 10965 10965 10965 10966 10966 10966 10966 10966 10966 10966 10966 10966 10966 10966 10967 10967 10968 10968 10969 10969 10969 10970 10970 10970 10969 10968 10968 10970 10971 10972 10971 10970 10971 10971 10971 10971 10971 10971 10971 10971 10972 10972 10972 10972 10971 10971 10972 10972 10972 10972 10972 10972 10972 10972 10972 10972 10971 10970 10969 10967 10964 10962 10960 10958 10958 10959 10961 10962 10961 10961 10961 10962 10963 10963 10964 10965 10965 10966 10966 10967 10968 10968
10961 10961 10961 10961 10961 10961 10961 10961 10962 10962 10962 10962 10963 10963 10963 10962 10962 10962 10962 10962 10963 10963 10964 10964 10965 10965 10966 10966 10966 10967 10967 10966 10965 10966 10967 10968 10969 10968 10967 10968 10969 10969 10968 10968 10968 10969 10970 10970 10970 10970 10970 10969 10970 10970 10971 10971 10971 10971 10971 10970 10970 10969 10969 10968 10967 10965 10963 10960 10958 10955 10954 10955 10956 10958 10959 10959 10959 10960 10961 10962 10962 10963 10963 10964 10965 10966 10967 10967
10957 10956 10956 10957 10957 10957 10957 10957 10957 10958 10958 10959 10959 10959 10959 10959 10958 10957 10957 10958 10958 10958 10959 10960 10961 10961 10961 10962 10962 10963 10963 10963 10962 10962 10963 10964 10965 10965 10964 10964 10966 10966 10966 10966 10965 10967 10968 10967 10968 10968 10968 10968 10968 10968 10969 10969 10969 10969 10969 10969 10968 10967 10967 10966 10965 10964 10962 10960 10957 10954 10951 10951 10952 10954 10956 10957 10957 10958 10959 10960 10960 10961 10962 10963 10964 10965 10966 10966
10952 10951 10952 10952 10952 10952 10952 10952 10953 10953 10954 10954 10955 10955 10955 10954 10953 10953 10953 10953 10954 10954 10955 10955 10956 10956 10957 10957 10958 10958 10959 10959 10959 10959 10959 10960 10961 10961 10961 10961 10961 10963 10963 10962 10962 10964 10965 10965 10965 10965 10966 10966 10965 10966 10967 10967 10967 10967 10967 10967 10967 10966 10965 10964 10964 10963 10961 10959 10956 10953 10949 10949 10949 10950 10952 10953 10954 10956 10957 10958 10959 10959 10960 10961 10963 10964 10965 10966
10946 10946 10946 10947 10947 10947 10947 10947 10947 10948 10949 10950 10950 10950 10950 10949 10948 10948 10948 10949 10949 10949 10950 10951 10952 10952 10952 10952 10953 10954 10954 10955 10955 10955 10955 10956 10957 10957 10957 10957 10957 10958 10959 10959 10960 10961 10962 10962 10961 10962 10963 10963 10963 10964 10964 10965 10965 10965 10966 10965 10965 10964 10963 10963 10963 10962 10961 10958 10955 10952 10949 10948 10949 10948 10949 10950 10951 10953 10954 10956 10957 10958 10959 10960 10962 10963 10964 10965
10941 10941 10941 10941 10941 10942 10942 10942 10942 10943 10944 10945 10945 10945 10945 10944 10943 10944 10944 10945 10944 10944 10946 10946 10947 10947 10946 10947 10947 10948 10950 10950 10950 10951 10951 10952 10952 10952 10953 10953 10953 10953 10954 10956 10956 10957 10958 10958 10957 10959 10961 10959 10960 10961 10961 10962 10962 10963 10963 10963 10963 10963 10962 10961 10961 10961 10960 10957 10954 10952 10949 10949 10949 10948 10948 10949 10949 10951 10952 10954 10956 10957 10958 10959 10961 10962 10963 10964
10936 10936 10936 10936 10936 10936 10936 10936 10936 10937 10939 10941 10940 10940 10939 10938 10938 10939 10940 10940 10939 10939 10940 10942 10942 10942 10941 10942 10942 10943 10944 10945 10945 10945 10946 10947 10948 10948 10948 10948 10948 10948 10949 10951 10952 10953 10955 10954 10953 10956 10957 10957 10958 10958 10958 10960 10960 10961 10961 10961 10962 10961 10960 10960 10960 10960 10959 10956 10954 10952 10949 10949 10950 10948 10949 10949 10949 10950 10951 10953 10955 10956 10957 10958 10959 10961 10962 10963
10930 10930 10930 10931 10931 10931 10930 10930 10930 10932 10935 10936 10935 10935 10934 10933 10934 10934 10935 10934 10933 10934 10935 10936 10937 10937 10936 10937 10937 10937 10938 10939 10939 10940 10940 10941 10942 10942 10943 10943 10944 10943 10944 10945 10947 10949 10950 10950 10949 10950 10952 10955 10955 10954 10955 10957 10957 10959 10959 10959 10960 10960 10959 10959 10958 10958 10958 10956 10955 10953 10949 10949 10950 10949 10950 10951 10950 10951 10952 10953 10955 10956 10956 10957 10958 10960 10961 10962
10924 10924 10925 10925 10925 10925 10925 10924 10924 10927 10930 10930 10929 10929 10928 10928 10929 10929 10929 10928 10927 10928 10929 10930 10932 10932 10931 10931 10931 10931 10931 10932 10933 10934 10934 10933 10935 10936 10937 10938 10939 10939 10939 10940 10942 10944 10946 10945 10945 10945 10949 10952 10952 10951 10952 10953 10954 10956 10956 10957 10958 10958 10958 10958 10957 10957 10957 10956 10955 10954 10950 10949 10950 10949 10950 10951 10951 10951 10952 10953 10954 10955 10956 10957 10958 10959 10961 10962
10918 10918 10918 10919 10920 10920 10919 10918 10918 10921 10924 10924 10923 10924 10922 10922 10923 10923 10923 10923 10922 10922 10922 10924 10926 10927 10925 10926 10926 10925 10925 10925 10927 10928 10929 10928 10928 10930 10931 10931 10933 10934 10934 10935 10937 10939 10940 10940 10940 10941 10944 10947 10949 10949 10948 10949 10952 10953 10953 10954 10955 10956 10956 10956 10956 10956 10957 10956 10955 10954 10951 10949 10950 10950 10950 10950 10950 10950 10951 10952 10954 10955 10955 10956 10957 10958 10960 10961
10912 10911 10912 10912 10913 10914 10913 10912 10912 10915 10918 10917 10917 10917 10916 10916 10918 10918 10918 10917 10916 10916 10916 10917 10920 10921 10920 10920 10921 10920 10920 10920 10920 10922 10923 10924 10923 10924 10924 10925 10927 10928 10929 10930 10932 10934 10935 10935 10936 10937 10939 10942 10945 10944 10942 10946 10951 10951 10951 10952 10952 10953 10954 10955 10955 10955 10956 10956 10955 10954 10951 10950 10949 10950 10949 10949 10949 10949 10950 10952 10952 10953 10954 10955 10956 10957 10959 10960
10905 10905 10905 10905 10906 10907 10907 10906 10906 10908 10911 10911 10910 10910 10911 10910 10912 10913 10912 10911 10911 10912 10910 10909 10913 10915 10914 10915 10916 10915 10915 10914 10915 10916 10917 10919 10919 10919 10919 10919 10920 10922 10924 10925 10927 10928 10929 10930 10931 10932 10933 10936 10939 10940 10939 10945 10949 10949 10949 10949 10950 10951 10952 10953 10954 10954 10955 10955 10955 10954 10952 10950 10950 10949 10949 10949 10949 10949 10950 10951 10952 10952 10952 10954 10955 10956 10957 10959
10897 10897 10897 10898 10898 10899 10900 10900 10899 10901 10904 10904 10903 10903 10905 10905 10907 10908 10906 10905 10906 10906 10904 10903 10906 10908 10909 10911 10910 10910 10911 10910 10910 10912 10912 10913 10914 10914 10915 10915 10916 10917 10919 10920 10921 10922 10923 10924 10925 10927 10929 10932 10935 10936 10937 10942 10945 10946 10947 10946 10947 10949 10950 10951 10952 10953 10954 10954 10955 10954 10953 10951 10950 10949 10948 10948 10949 10949 10949 10950 10951 10951 10951 10952 10954 10955 10956 10957
10889 10890 10890 10890 10890 10891 10892 10892 10893 10894 10896 10897 10896 10897 10899 10900 10902 10902 10900 10899 10900 10900 10898 10898 10900 10902 10906 10907 10906 10906 10906 10906 10907 10907 10908 10908 10909 10909 10910 10911 10912 10913 10914 10915 10916 10916 10917 10919 10921 10924 10925 10927 10930 10932 10933 10937 10941 10942 10943 10944 10944 10945 10947 10949 10950 10951 10953 10954 10954 10954 10953 10951 10950 10950 10948 10948 10948 10949 10949 10950 10951 10951 10951 10951 10952 10954 10955 10956
10881 10881 10881 10882 10883 10883 10885 10885 10885 10887 10889 10890 10889 10890 10892 10893 10896 10896 10894 10892 10894 10896 10894 10893 10895 10896 10901 10904 10902 10902 10900 10901 10904 10904 10904 10904 10905 10905 10905 10907 10908 10908 10909 10910 10911 10911 10912 10915 10917 10919 10921 10922 10924 10926 10928 10932 10935 10937 10939 10940 10940 10941 10943 10946 10947 10949 10951 10953 10954 10954 10953 10951 10950 10949 10948 10948 10948 10948 10949 10949 10950 10950 10950 10951 10951 10952 10954 10955
10874 10873 10873 10874 10874 10876 10878 10877 10877 10880 10882 10882 10882 10884 10886 10887 10889 10890 10889 10886 10887 10891 10890 10889 10890 10889 10894 10900 10899 10898 10895 10897 10900 10900 10900 10901 10901 10902 10902 10903 10904 10904 10905 10906 10906 10907 10909 10911 10912 10913 10915 10917 10918 10920 10923 10927 10930 10932 10934 10935 10935 10937 10940 10941 10944 10947 10949 10951 10952 10953 10952 10951 10949 10949 10948 10948 10948 10948 10948 10948 10949 10949 10949 10949 10950 10952 10953 10954
10867 10866 10865 10865 10865 10867 10871 10871 10871 10872 10874 10874 10874 10876 10879 10882 10883 10883 10884 10881 10879 10883 10885 10885 10885 10882 10887 10896 10898 10892 10887 10892 10896 10896 10897 10897 10897 10899 10899 10900 10901 10901 10902 10902 10903 10904 10906 10907 10907 10908 10910 10912 10914 10916 10918 10921 10924 10926 10929 10929 10930 10933 10936 10938 10942 10945 10947 10948 10949 10951 10952 10951 10949 10948 10948 10947 10947 10947 10947 10947 10947 10948 10948 10948 10949 10951 10952 10953
10858 10859 10858 10856 10856 10858 10862 10864 10864 10865 10867 10866 10866 10869 10873 10876 10877 10876 10877 10878 10874 10872 10879 10883 10880 10877 10881 10891 10892 10885 10883 10887 10891 10892 10893 10893 10894 10895 10896 10897 10897 10898 10899 10899 10899 10901 10903 10903 10903 10904 10906 10907 10909 10910 10912 10914 10917 10921 10922 10921 10924 10930 10933 10936 10940 10942 10944 10946 10947 10949 10951 10950 10949 10948 10948 10947 10947 10947 10946 10946 10947 10948 10948 10948 10949 10951 10952 10953
10849 10850 10850 10848 10848 10848 10852 10857 10858 10858 10860 10859 10859 10861 10866 10868 10870 10870 10870 10874 10870 10862 10870 10880 10876 10873 10876 10883 10884 10883 10882 10878 10882 10891 10889 10887 10890 10892 10894 10894 10894 10895 10896 10896 10896 10897 10899 10899 10900 10902 10902 10902 10903 10904 10905 10908 10912 10913 10913 10914 10922 10928 10930 10933 10936 10939 10941 10943 10945 10948 10949 10950 10949 10948 10948 10947 10946 10946 10946 10946 10947 10948 10948 10948 10949 10951 10953 10954
10838 10841 10841 10840 10841 10839 10840 10847 10851 10852 10852 10853 10852 10854 10858 10860 10862 10863 10862 10868 10866 10856 10861 10872 10873 10870 10871 10874 10877 10880 10877 10870 10877 10886 10882 10882 10887 10889 10890 10889 10890 10892 10893 10894 10892 10893 10895 10896 10898 10899 10898 10897 10898 10900 10902 10905 10905 10903 10906 10913 10921 10924 10926 10928 10932 10936 10938 10940 10945 10946 10947 10948 10948 10948 10948 10946 10945 10945 10946 10947 10947 10948 10948 10948 10950 10951 10953 10954
10828 10830 10832 10831 10833 10832 10830 10835 10842 10845 10844 10844 10845 10846 10849 10851 10853 10855 10855 10861 10861 10853 10854 10861 10866 10867 10867 10868 10869 10872 10871 10867 10872 10877 10876 10880 10884 10884 10884 10884 10886 10889 10890 10890 10887 10888 10891 10892 10895 10895 10893 10894 10895 10897 10899 10898 10895 10896 10904 10911 10914 10918 10921 10923 10928 10933 10934 10938 10943 10944 10944 10946 10946 10947 10947 10945 10944 10945 10946 10947 10947 10948 10948 10948 10949 10951 10953 10954
10817 10820 10823 10822 10823 10825 10823 10824 10831 10835 10834 10835 10836 10838 10840 10842 10845 10846 10848 10855 10856 10849 10847 10852 10858 10863 10863 10863 10861 10864 10866 10865 10867 10870 10872 10876 10877 10878 10879 10879 10883 10886 10886 10885 10882 10884 10887 10888 10891 10890 10888 10891 10893 10893 10894 10891 10890 10895 10902 10904 10906 10912 10915 10918 10924 10928 10930 10936 10940 10939 10940 10942 10942 10944 10944 10942 10943 10944 10945 10946 10946 10947 10947 10948 10949 10950 10952 10954
10807 10808 10812 10812 10812 10815 10815 10817 10821 10822 10823 10825 10826 10828 10831 10832 10835 10838 10843 10849 10847 10842 10843 10846 10851 10856 10858 10857 10855 10856 10859 10860 10863 10866 10868 10870 10871 10874 10874 10876 10879 10880 10880 10880 10877 10879 10882 10885 10887 10885 10885 10888 10889 10889 10889 10887 10888 10894 10898 10897 10900 10905 10908 10913 10919 10922 10928 10934 10933 10931 10934 10937 10938 10940 10941 10940 10942 10943 10944 10944 10945 10946 10947 10947 10948 10949 10951 10953
10795 10796 10800 10802 10802 10805 10806 10809 10812 10809 10808 10814 10817 10817 10820 10823 10825 10830 10839 10841 10835 10835 10839 10841 10844 10848 10849 10849 10848 10849 10850 10853 10857 10860 10862 10863 10866 10869 10869 10871 10874 10874 10876 10874 10870 10874 10880 10881 10881 10880 10882 10884 10884 10884 10885 10884 10886 10890 10892 10892 10895 10899 10902 10909 10914 10918 10926 10928 10923 10924 10930 10935 10936 10936 10937 10939 10940 10941 10941 10942 10944 10944 10945 10946 10947 10948 10949 10951
10783 10783 10786 10790 10793 10796 10796 10797 10801 10800 10796 10800 10807 10808 10809 10812 10817 10825 10832 10828 10823 10829 10834 10835 10837 10838 10838 10840 10841 10841 10842 10845 10850 10853 10855 10856 10860 10863 10863 10865 10867 10869 10871 10867 10864 10871 10877 10876 10875 10876 10877 10878 10879 10880 10881 10881 10883 10886 10889 10889 10892 10894 10897 10904 10908 10912 10919 10918 10917 10921 10928 10934 10935 10932 10934 10937 10937 10939 10939 10940 10942 10942 10944 10945 10945 10947 10948 10950
10769 10770 10772 10775 10782 10786 10785 10783 10787 10791 10788 10786 10793 10798 10798 10802 10811 10818 10820 10815 10815 10822 10826 10827 10830 10828 10828 10831 10832 10832 10834 10837 10841 10845 10849 10850 10854 10857 10857 10858 10862 10864 10864 10861 10861 10867 10871 10870 10871 10871 10870 10872 10874 10875 10877 10878 10880 10883 10885 10886 10889 10890 10893 10898 10900 10904 10909 10909 10911 10917 10924 10933 10933 10929 10930 10932 10933 10936 10937 10938 10939 10940 10942 10943 10944 10945 10946 10947
10756 10756 10757 10760 10768 10775 10775 10772 10772 10777 10778 10775 10779 10785 10787 10795 10804 10806 10806 10805 10806 10813 10815 10818 10820 10819 10819 10821 10820 10823 10827 10829 10833 10838 10842 10845 10849 10851 10851 10852 10855 10856 10855 10855 10857 10861 10864 10866 10865 10864 10864 10868 10872 10872 10873 10875 10877 10879 10881 10884 10886 10885 10887 10891 10894 10898 10902 10904 10909 10915 10923 10930 10928 10923 10924 10928 10931 10934 10935 10935 10937 10938 10939 10941 10942 10943 10944 10945
10743 10742 10742 10745 10754 10761 10762 10761 10760 10762 10765 10765 10767 10771 10779 10788 10791 10791 10794 10794 10796 10801 10804 10806 10808 10809 10810 10810 10809 10813 10820 10823 10825 10830 10834 10839 10843 10844 10843 10843 10845 10847 10849 10851 10852 10854 10859 10860 10858 10858 10862 10866 10868 10868 10869 10873 10875 10875 10878 10882 10881 10878 10882 10888 10891 10894 10897 10901 10908 10913 10918 10922 10920 10918 10921 10925 10928 10929 10931 10933 10934 10935 10935 10937 10939 10940 10941 10943
10729 10726 10726 10730 10738 10744 10747 10749 10749 10748 10751 10753 10755 10762 10771 10775 10774 10777 10781 10783 10785 10790 10792 10792 10795 10799 10800 10801 10802 10805 10813 10816 10817 10823 10828 10831 10834 10835 10834 10834 10836 10840 10843 10845 10846 10849 10855 10855 10851 10856 10861 10862 10863 10864 10867 10871 10871 10872 10877 10877 10873 10874 10882 10887 10887 10889 10893 10897 10901 10904 10909 10912 10914 10916 10917 10920 10923 10924 10927 10929 10930 10931 10933 10934 10936 10936 10938 10940
10716 10711 10710 10714 10722 10728 10732 10736 10737 10736 10736 10738 10744 10753 10758 10758 10760 10763 10767 10771 10775 10778 10778 10779 10782 10787 10790 10794 10796 10798 10803 10806 10808 10815 10820 10821 10824 10825 10825 10825 10827 10832 10836 10838 10841 10845 10850 10849 10848 10854 10858 10857 10858 10861 10864 10868 10868 10871 10873 10871 10869 10874 10880 10882 10883 10885 10889 10892 10893 10897 10904 10907 10911 10913 10911 10914 10917 10918 10921 10924 10926 10928 10930 10931 10932 10932 10934 10936
10701 10696 10694 10698 10705 10712 10718 10720 10721 10722 10723 10725 10732 10739 10742 10744 10747 10748 10750 10757 10762 10765 10766 10766 10769 10774 10780 10785 10788 10790 10793 10795 10799 10806 10810 10810 10812 10814 10818 10820 10822 10826 10830 10833 10838 10841 10844 10845 10845 10849 10852 10851 10854 10859 10862 10864 10866 10867 10867 10866 10869 10874 10875 10877 10880 10881 10885 10888 10889 10894 10900 10903 10905 10905 10904 10907 10911 10912 10915 10918 10921 10924 10926 10928 10928 10929 10930 10932
10686 10681 10678 10683 10691 10695 10699 10703 10703 10706 10709 10713 10719 10722 10725 10730 10732 10731 10735 10742 10748 10751 10754 10755 10756 10762 10769 10774 10778 10781 10784 10786 10788 10794 10798 10798 10800 10806 10813 10816 10817 10822 10825 10828 10834 10836 10837 10840 10840 10841 10845 10847 10850 10856 10859 10860 10861 10861 10862 10864 10867 10870 10871 10873 10876 10878 10882 10885 10886 10890 10894 10894 10894 10895 10896 10901 10905 10907 10910 10913 10916 10919 10922 10923 10924 10926 10927 10928
10668 10665 10661 10669 10677 10675 10677 10683 10686 10688 10693 10700 10702 10704 10709 10714 10717 10718 10721 10726 10732 10737 10741 10744 10746 10749 10755 10762 10767 10770 10776 10778 10778 10782 10786 10786 10790 10799 10806 10808 10811 10815 10818 10821 10825 10824 10825 10833 10836 10834 10838 10844 10848 10853 10855 10855 10855 10856 10859 10861 10863 10866 10868 10870 10874 10875 10877 10880 10882 10885 10887 10884 10885 10889 10891 10896 10900 10904 10907 10909 10910 10913 10917 10920 10921 10922 10924 10926
10650 10647 10644 10655 10661 10656 10655 10662 10667 10670 10676 10683 10686 10688 10693 10698 10702 10705 10705 10708 10716 10723 10727 10732 10735 10738 10742 10748 10754 10760 10766 10770 10770 10770 10774 10776 10781 10789 10796 10800 10803 10807 10809 10810 10813 10814 10818 10828 10832 10829 10833 10841 10844 10846 10848 10848 10849 10851 10855 10857 10858 10861 10865 10868 10871 10872 10873 10876 10877 10880 10881 10878 10878 10884 10887 10891 10896 10900 10903 10905 10906 10908 10912 10915 10917 10919 10921 10923
10632 10629 10628 10638 10642 10638 10638 10641 10647 10653 10659 10665 10670 10673 10677 10681 10686 10690 10690 10692 10701 10707 10712 10718 10723 10728 10731 10734 10740 10746 10753 10758 10759 10759 10763 10767 10771 10778 10786 10791 10795 10798 10798 10800 10803 10808 10814 10821 10826 10826 10829 10833 10834 10836 10840 10842 10844 10847 10851 10853 10854 10857 10861 10865 10868 10868 10869 10873 10873 10876 10877 10873 10873 10878 10882 10886 10891 10894 10897 10900 10901 10904 10907 10909 10912 10915 10917 10919
10615 10613 10613 10620 10623 10622 10621 10622 10628 10636 10640 10646 10653 10658 10660 10664 10668 10672 10675 10680 10686 10691 10697 10704 10711 10716 10719 10722 10726 10731 10737 10743 10746 10749 10753 10757 10760 10766 10773 10779 10785 10788 10788 10791 10795 10799 10806 10812 10816 10820 10821 10823 10826 10829 10834 10837 10839 10843 10847 10849 10851 10854 10857 10860 10862 10862 10866 10870 10871 10873 10873 10869 10868 10873 10877 10880 10884 10888 10892 10894 10897 10899 10902 10904 10907 10910 10913 10915
10598 10596 10596 10602 10606 10605 10604 10605 10611 10619 10622 10628 10635 10639 10642 10645 10649 10654 10659 10665 10669 10674 10681 10688 10695 10702 10707 10710 10713 10717 10722 10726 10731 10737 10742 10747 10750 10755 10761 10767 10773 10776 10777 10782 10786 10789 10797 10802 10805 10811 10814 10816 10819 10822 10828 10832 10833 10837 10841 10843 10847 10849 10851 10854 10856 10858 10863 10867 10868 10870 10871 10865 10862 10866 10871 10874 10878 10881 10885 10888 10891 10895 10897 10899 10902 10904 10907 10910
10580 10579 10578 10582 10588 10590 10586 10588 10595 10600 10604 10610 10614 10618 10622 10625 10631 10636 10642 10647 10650 10655 10663 10670 10679 10686 10691 10696 10699 10704 10708 10710 10716 10724 10730 10736 10740 10744 10749 10753 10760 10764 10766 10772 10777 10781 10788 10792 10794 10801 10806 10810 10813 10817 10821 10822 10822 10828 10833 10835 10839 10842 10844 10848 10850 10854 10860 10862 10864 10867 10868 10862 10857 10859 10865 10869 10871 10875 10878 10882 10886 10890 10892 10895 10898 10899 10901 10903
10561 10562 10560 10560 10568 10573 10569 10570 10578 10581 10584 10592 10595 10597 10602 10607 10612 10618 10624 10629 10631 10638 10647 10654 10660 10666 10672 10681 10687 10691 10696 10697 10702 10710 10717 10722 10727 10733 10737 10740 10746 10752 10754 10760 10767 10772 10778 10783 10784 10789 10797 10804 10808 10810 10811 10810 10813 10822 10827 10828 10831 10834 10836 10840 10845 10852 10856 10857 10860 10863 10862 10860 10857 10854 10856 10862 10867 10870 10873 10878 10882 10884 10887 10890 10893 10895 10896 10898
10539 10540 10540 10539 10545 10552 10551 10552 10559 10562 10565 10573 10577 10578 10583 10588 10592 10599 10606 10610 10615 10624 10632 10635 10639 10647 10656 10668 10675 10678 10683 10686 10690 10696 10701 10708 10714 10720 10726 10729 10734 10739 10742 10747 10754 10760 10768 10773 10772 10778 10789 10797 10800 10802 10801 10801 10807 10815 10818 10820 10824 10827 10828 10834 10842 10849 10850 10852 10857 10857 10855 10857 10858 10853 10850 10854 10861 10867 10869 10873 10876 10878 10881 10884 10886 10889 10891 10893
10513 10514 10518 10520 10522 10527 10531 10534 10539 10541 10545 10553 10557 10559 10564 10569 10574 10581 10588 10593 10600 10608 10612 10614 10621 10631 10641 10652 10659 10663 10669 10674 10678 10680 10685 10694 10701 10706 10712 10716 10720 10726 10730 10734 10741 10749 10757 10762 10763 10768 10779 10787 10792 10793 10791 10791 10798 10804 10807 10812 10816 10818 10822 10830 10838 10842 10843 10848 10852 10849 10848 10854 10857 10855 10851 10849 10854 10859 10863 10866 10869 10871 10874 10876 10878 10882 10884 10886
10485 10487 10492 10497 10498 10501 10508 10514 10518 10521 10525 10531 10537 10540 10545 10551 10558 10564 10570 10576 10581 10586 10591 10596 10605 10614 10623 10632 10640 10646 10653 10658 10662 10665 10672 10679 10686 10692 10698 10702 10706 10713 10717 10720 10728 10737 10744 10750 10753 10759 10770 10777 10780 10782 10781 10781 10786 10792 10797 10804 10808 10812 10818 10825 10831 10834 10837 10842 10844 10842 10845 10850 10852 10853 10852 10849 10848 10850 10853 10858 10862 10864 10866 10868 10871 10874 10877 10879
10458 10461 10465 10471 10473 10475 10482 10490 10495 10499 10502 10508 10516 10521 10525 10531 10540 10547 10552 10556 10560 10566 10573 10580 10587 10596 10604 10611 10620 10628 10635 10640 10646 10654 10660 10664 10670 10677 10682 10687 10693 10699 10702 10707 10715 10725 10734 10739 10743 10750 10760 10765 10767 10770 10771 10770 10775 10783 10790 10797 10802 10808 10814 10820 10824 10827 10831 10835 10836 10837 10842 10845 10846 10848 10849 10847 10845 10843 10845 10850 10854 10857 10861 10863 10865 10868 10870 10873
10434 10437 10441 10445 10448 10451 10457 10463 10470 10477 10480 10485 10494 10501 10504 10511 10520 10528 10533 10537 10542 10547 10555 10562 10569 10577 10585 10593 10601 10610 10617 10625 10634 10642 10647 10650 10655 10660 10665 10672 10679 10684 10689 10695 10702 10714 10723 10728 10732 10738 10749 10755 10755 10756 10759 10761 10765 10773 10783 10794 10801 10805 10810 10814 10816 10818 10822 10826 10828 10832 10840 10841 10839 10840 10842 10841 10841 10839 10839 10842 10848 10852 10856 10858 10861 10862 10864 10867
10414 10416 10420 10423 10425 10429 10434 10438 10445 10453 10457 10463 10472 10479 10484 10491 10500 10508 10514 10519 10525 10529 10535 10543 10551 10559 10567 10574 10582 10591 10601 10612 10621 10626 10630 10635 10640 10644 10649 10657 10663 10670 10678 10683 10689 10701 10711 10716 10720 10725 10737 10747 10743 10741 10749 10753 10752 10764 10784 10795 10795 10797 10801 10805 10805 10807 10812 10816 10820 10827 10834 10833 10830 10832 10834 10833 10834 10835 10837 10840 10844 10847 10849 10852 10855 10856 10858 10860